Regional Weather Roundup
Issued by NWS Charleston, SC

Current Version | Previous Version | Text Only | Print | Product List | Glossary Off
Versions: 1 2 3 4 5 6 7 8 9 10 11 12 13 14 15 16 17 18 19 20 21 22 23 24 25 26 27 28 29 30 31 32 33 34 35 36 37 38 39 40 41 42 43 44 45 46 47 48 49 50

000
ASUS42 KCHS 281125
RWRCHS

REGIONAL WEATHER ROUNDUP
NATIONAL WEATHER SERVICE CHARLESTON SC
700 AM EDT THU AUG 28 2014

NOTE: "FAIR" INDICATES FEW OR NO CLOUDS BELOW 12,000 FEET WITH NO
SIGNIFICANT WEATHER AND/OR OBSTRUCTIONS TO VISIBILITY.

NOT ALL STATIONS ARE QUALITY CONTROLLED BY THE NATIONAL
WEATHER SERVICE. USE DATA WITH CAUTION...ESPECIALLY
DEWPOINT OBSERVATIONS.

SCZ027-030-031-034>040-042>050-281200-
...SOUTH CAROLINA...

CITY           SKY/WX    TMP DP  RH WIND       PRES   REMARKS
N CHARLESTON   CLEAR     69  63  81 NW3       30.02R
WATERFRONT PRK   N/A     72 N/A N/A W5          N/A
FORT JOHNSON   NOT AVBL
MOUNT PLEASANT LGT RAIN  66  64  94 CALM      30.03R
JOHNS ISLAND   SUNNY     66  66 100 CALM      30.03R
PINOPOLIS        N/A     73  64  73 W9        29.94R
MONCKS CORNER    N/A     66  64  94 CALM      30.02R
SUMMERVILLE    FAIR      61  61 100 CALM      30.03S
BEAUFORT MCAS  PTCLDY    68  64  87 CALM      30.03R
BEAUFORT ARPT  FAIR      68  66  94 W3        30.03R FOG
HILTON HEAD IS CLEAR     70  68  94 CALM      30.03R
GEORGETOWN     NOT AVBL
WALTERBORO     SUNNY     63 N/A N/A CALM      30.03S
ORANGEBURG     CLEAR     63  59  87 CALM      30.03R
BARNWELL       FAIR      57  55  94 CALM      30.04R
AIKEN          FAIR      59  57  94 CALM      30.07R
MANNING        FAIR      61 N/A N/A CALM      30.02S
KINGSTREE      NOT AVBL
COLUMBIA       PTCLDY    61  57  87 CALM      30.02R
SUMTER         CLEAR     66  60  80 VRB2      30.00R
FLORENCE       CLEAR     62  58  86 CALM      30.01R
MYRTLE BEACH   CLEAR     66  61  82 NW5       30.00S
N MYRTLE BEACH NOT AVBL

$$

GAZ063-065-086>088-099>101-113>116-118-119-134-136>141-150-281200-
...GEORGIA...

CITY           SKY/WX    TMP DP  RH WIND       PRES   REMARKS
SAVANNAH ARPT  PTCLDY    66  62  87 CALM      30.03R
HUNTER AAF     CLEAR     65  65  98 W3        30.01R
FORT STEWART   CLEAR     64  61  91 CALM      30.02R
STATESBORO     NOT AVBL
SYLVANIA       SUNNY     62  62 100 CALM      30.05R
CLAXTON        NOT AVBL
THOMSON        CLEAR     58  58 100 CALM      30.08S
AUGUSTA-BUSH   CLEAR     57  57 100 CALM      30.02S
AUGUSTA-DANIEL CLEAR     70  59  68 CALM      30.04R
SWAINSBORO     FAIR      63  63 100 CALM      30.05R
VIDALIA          N/A     64  63  94 CALM      30.04S
ALMA           CLEAR     60  59  96 NE3       30.03R FOG
WAYCROSS       CLEAR     65  65  99 CALM      30.03R FOG
JESUP            N/A     61  61 100 CALM      30.04R
BRUNSWICK      CLEAR     66  63  88 CALM      30.04R
SAINT SIMONS   CLEAR     69  66  90 CALM      30.02R

$$

SCZ027-028-034-036>038-045-046-048>050-GAZ119-141-281200-
...LAKE AND SUPPLEMENTAL COASTAL OBSERVATIONS...

STATION/POSITION TIME  TEMP    WIND        PRES    WAVE   SWELL
                       AIR SEA DIR/SP/G            HT/PER HT/PER/DIR
                 (UTC) (F)     (DEG/KT/KT) (MB)    (FT/S) (FT/S/D)
UPR LAKE MARION  NOT AVBL
WINYAH BAY       1100   68     300/  4     1016.0S
LAKE MURRAY      1000   69     300/  1/  3 1015.9S
ACE BASIN NERRS  1100   67        CALM     1016.0S
FORT PULASKI     1100   71     310/  6/  7 1016.8R
SAPELO ISLAND    1100   69        CALM     1016.0S

$$

ANZ835-935-AMZ111-154-330-350-352-354-374-450-454-472-281200-
...C-MAN AND BUOY OBSERVATIONS...

STATION/POSITION TIME  TEMP    WIND        PRES    WAVE   SWELL
                       AIR SEA DIR/SP/G            HT/PER HT/PER/DIR
                 (UTC) (F)     (DEG/KT/KT) (MB)    (FT/S) (FT/S/D)
FOLLY BEACH CMAN 1100   70     300/  3/  5 1017.0R
BUOY 41004       1100   80 82  290/  8/ 10 1015.8R   5/ 9   5/ 9
BUOY 41008       1100   81 84  190/  4/  6 1016.2R   4/10   3/ 90/10
5E ST. MARYS GA  1100      83                N/A     4/ 9   2/ 70/11
FRYING PAN BUOY  NOT AVBL
BUOY 41025       1100   78     280/ 16/ 17 1013.8R   5/ 8   5/ 80/ 8
CAPE LOOKOUT NC  1100   77     290/ 12/ 14 1015.0R
BUOY 41002       0952   80 81  300/  6/  8 1016.0R   8/ 7   8/ 20/ 7
BUOY 41010       1100   82 83  180/  6/ 10 1015.7R   9/11   8/ 50/11
BUOY 41012       NOT AVBL
ST AUGUSTINE FL  1100   72     300/  3/  4 1016.8R
CAPERS NEARSHORE 1000   76     320/  8/ 10   N/A
FRIPP NEARSHORE  NOT AVBL


$$


USA.gov is the U.S. government's official web portal to all federal, state and local government web resources and services.